Flag for Norway Weather past 2 weeks in Ny-Ålesund, Svalbard, Norway

Now
57 °F

Sunny.


Feels Like: 54 °F
Forecast: 39 / 45 °F
Wind: 13 mph from Southeast

Location: Svalbard Lufthavn

Current Time: Jul 31, 2015 at 1:21:21 AM

Latest Report: Jul 31, 2015 at 12:50 AM


Visibility: 10 mi

Pressure: 30.12 "Hg

Humidity: 41%

Dew point: 34 °F

Location of Ny-ÅlesundLocation

Historic Weather in Ny-Ålesund — Graph

°F

Ny-Ålesund temperature yesterday

Maximum temperature yesterday: 64 °F (at 4:50 PM)
Minimum temperature yesterday: 52 °F (at 3:50 AM)
Average temperature yesterday: 57 °F

Past Weeks' High & Low Weather Summary

 TemperatureHumidityPressure
High64 °F (Jul 30, 4:50 PM)87% (Jul 17, 1:50 AM)30.15 "Hg (Jul 17, 1:50 AM)
Low39 °F (Jul 16, 1:50 AM)34% (Jul 30, 5:50 PM)29.59 "Hg (Jul 24, 7:50 AM)
Average47 °F68%29.92 "Hg
* Reported Jul 15 11:50 PM — Jul 30 11:50 PM, Ny-Ålesund, Weather by CustomWeather, © 2015

Note: Actual official high and low records may vary slightly from our data, if they occured in-between our weather recording intervals... More about our weather records

Advertising

Ny-Ålesund weather history for previous 24 hours

 ConditionsComfort  
Time TempWeatherWind HumidityBarometerVisibility
11:50 PM
Thu, Jul 30
57 °FSunny.13 mph41%30.12 "Hg10 mi
10:50 PM59 °FSunny.14 mph39%30.12 "Hg10 mi
9:50 PM59 °FSunny.18 mph34%30.12 "Hg10 mi
8:50 PM59 °FSunny.14 mph36%30.12 "Hg10 mi
7:50 PM61 °FPassing clouds.12 mph36%30.09 "HgN/A
6:50 PM63 °FSunny.13 mph37%30.09 "Hg10 mi
5:50 PM64 °FSunny.13 mph34%30.09 "Hg10 mi
4:50 PM64 °FSunny.2 mph40%30.09 "Hg10 mi
3:50 PM59 °FSunny.1 mph59%30.09 "Hg10 mi
3:00 PM61 °FSunny.6 mph55%30.09 "Hg10 mi
1:50 PM55 °FSunny.7 mph72%30.09 "Hg10 mi
12:50 PM55 °FPassing clouds.5 mph72%30.09 "HgN/A
11:50 AM57 °FSunny.7 mph72%30.12 "Hg10 mi
10:50 AM54 °FSunny.7 mph77%30.09 "Hg10 mi
9:50 AM55 °FSunny.8 mph67%30.09 "Hg10 mi
8:50 AM54 °FScattered clouds.3 mph77%30.09 "HgN/A
7:50 AM55 °FScattered clouds.6 mph67%30.07 "HgN/A
6:50 AM54 °FPartly sunny.5 mph72%30.07 "HgN/A
4:50 AM54 °FBroken clouds.3 mph72%30.07 "HgN/A
3:50 AM52 °FBroken clouds.2 mph77%30.04 "HgN/A
2:50 AM54 °FBroken clouds.3 mph72%30.04 "HgN/A
1:50 AM54 °FPartly sunny.2 mph77%30.04 "HgN/A
Weather by CustomWeather, © 2015

See weather overviewHow to use our weather pages